Location: Albany
(35.0000°S, 118.0000°E)
Time: 00:56:06
(UTC-04:00)

Atlas Centaur 2 - Visible Passes

Search period start: 26 August 2016 00:00
Search period end: 05 September 2016 00:00
Orbit: 459 x 1315 km, 30.4° (Epoch: 25 August)

Date Brightness Start Highest point End Pass type
(mag) Time Alt. Az. Time Alt. Az. Time Alt. Az.
26 Aug 2.8 06:06:59 10° WNW 06:13:44 55° N 06:19:02 10° E visible
26 Aug 2.7 07:56:59 10° W 08:02:03 43° NNW 08:02:03 43° NNW visible
27 Aug 2.8 06:03:45 10° WNW 06:10:43 57° N 06:16:11 10° ENE visible
27 Aug 2.8 07:53:52 10° W 07:59:28 41° NNW 07:59:28 41° NNW visible
28 Aug 2.9 06:00:33 10° W 06:07:41 58° N 06:13:19 10° ENE visible
28 Aug 2.9 07:50:47 10° W 07:56:31 37° NNW 07:56:53 37° N visible
29 Aug 3.1 07:47:43 10° W 07:53:25 33° NNW 07:54:19 32° N visible
30 Aug 3.4 07:44:42 10° W 07:50:18 29° NNW 07:51:49 26° N visible
31 Aug 3.8 07:41:44 10° W 07:47:08 26° NNW 07:49:21 20° N visible
01 Sep 4.1 07:38:51 10° WNW 07:43:56 22° NNW 07:46:57 15° N visible
02 Sep 4.4 07:36:06 10° WNW 07:40:41 18° NNW 07:44:36 10° N visible
03 Sep 4.6 07:33:34 10° WNW 07:37:25 15° NW 07:40:53 10° N visible
04 Sep 4.9 07:31:27 10° WNW 07:34:07 12° NW 07:36:36 10° NNW visible
